Location: La Brionne
(46.1728°N, 1.7849°E)
Time: 17:43:55
(UTC+00:00)

Cosmos 1544 Rocket - Pass Details

Date: 25 October 2021
Orbit: 603 x 632 km, 82.5° (Epoch: 27 November)

Event Time Altitude Azimuth Distance (km) Brightness Sun altitude
Rises 17:36:21 0° 177° (S) 2,911 7.1 -8.8°
Reaches altitude 10° 17:38:36 10° 174° (S) 2,008 6.2 -9.2°
Maximum altitude 17:42:59 60° 95° (E) 729 3.6 -9.9°
Drops below altitude 10° 17:47:23 10° 16° (NNE) 2,019 6.0 -10.7°
Sets 17:49:39 0° 13° (NNE) 2,928 6.8 -11.1°
